NOZ783 ENAT-ENSB

Flight info

Callsign NOZ783
Flight time N/A
Altitude 36000
Route ELSEV DCT OLOLI DCT AMPIS
Aircraft B38M/M-SDE1FGHILORVWXY/HB1

Departure

Time N/A
Airport Alta Airport (ENAT)

Arrival

Time 2026-04-30 00:52
Airport Svalbard Airport, Longyear (ENSB)
Time Latitude Longitude Altitude Speed Heading
2026-04-29 23:54 73.12470 21.84508 35944 ft 449 kts 347°
2026-04-29 23:55 73.18637 21.80729 35949 ft 451 kts 345°
2026-04-29 23:55 73.24814 21.76916 35950 ft 451 kts 346°
2026-04-29 23:56 73.31006 21.73077 35944 ft 453 kts 346°
2026-04-29 23:56 73.37201 21.69201 35940 ft 451 kts 346°
2026-04-29 23:57 73.43378 21.65303 35952 ft 453 kts 347°
2026-04-29 23:57 73.49572 21.61376 35940 ft 451 kts 346°
2026-04-29 23:58 73.55745 21.57418 35936 ft 452 kts 347°
2026-04-29 23:58 73.61903 21.53454 35935 ft 452 kts 346°
2026-04-29 23:59 73.68117 21.49413 35941 ft 451 kts 347°
2026-04-29 23:59 73.74311 21.45365 35939 ft 453 kts 346°
2026-04-30 00:00 73.80515 21.41271 35933 ft 455 kts 345°
2026-04-30 00:00 73.86701 21.37165 35939 ft 455 kts 346°
2026-04-30 00:01 73.92928 21.32994 35932 ft 454 kts 346°
2026-04-30 00:01 73.99156 21.28795 35934 ft 456 kts 346°
2026-04-30 00:02 74.05397 21.24551 35928 ft 456 kts 346°
2026-04-30 00:02 74.11649 21.20271 35921 ft 458 kts 347°
2026-04-30 00:03 74.17910 21.15955 35925 ft 457 kts 345°
2026-04-30 00:03 74.24139 21.11615 35923 ft 457 kts 346°
2026-04-30 00:04 74.30389 21.07233 35916 ft 457 kts 345°
2026-04-30 00:04 74.36632 21.02812 35916 ft 457 kts 347°
2026-04-30 00:05 74.42889 20.98358 35923 ft 459 kts 345°
2026-04-30 00:05 74.49195 20.93826 35911 ft 463 kts 346°
2026-04-30 00:06 74.55522 20.89249 35900 ft 463 kts 346°
2026-04-30 00:06 74.61849 20.84627 35900 ft 463 kts 346°
2026-04-30 00:07 74.68186 20.79967 35912 ft 463 kts 345°
2026-04-30 00:07 74.74473 20.75297 35919 ft 463 kts 345°
2026-04-30 00:08 74.80796 20.70567 35924 ft 463 kts 346°
2026-04-30 00:08 74.87115 20.65802 35915 ft 464 kts 345°
2026-04-30 00:09 74.93462 20.60974 35908 ft 465 kts 347°
2026-04-30 00:09 74.99817 20.56096 35906 ft 465 kts 346°
2026-04-30 00:10 75.06169 20.51186 35912 ft 465 kts 346°
2026-04-30 00:10 75.12532 20.46216 35900 ft 469 kts 345°
2026-04-30 00:11 75.18946 20.41169 35902 ft 470 kts 345°
2026-04-30 00:11 75.25350 20.36089 35899 ft 470 kts 346°
2026-04-30 00:12 75.31766 20.30945 35910 ft 471 kts 346°
2026-04-30 00:12 75.38186 20.25765 35887 ft 470 kts 345°
2026-04-30 00:13 75.44611 20.20526 35890 ft 472 kts 346°
2026-04-30 00:13 75.51028 20.15258 35892 ft 470 kts 346°
2026-04-30 00:14 75.57447 20.09929 35895 ft 472 kts 345°
2026-04-30 00:14 75.63874 20.04548 35876 ft 471 kts 346°
2026-04-30 00:15 75.70288 19.99140 35888 ft 471 kts 345°
2026-04-30 00:15 75.76705 19.93666 35895 ft 472 kts 346°
2026-04-30 00:16 75.83164 19.88117 35885 ft 476 kts 345°
2026-04-30 00:16 75.89657 19.82480 35871 ft 476 kts 345°
2026-04-30 00:17 75.96126 19.76821 35870 ft 476 kts 345°
2026-04-30 00:17 76.02611 19.71086 35877 ft 477 kts 345°
2026-04-30 00:18 76.09042 19.65352 35884 ft 476 kts 345°
2026-04-30 00:18 76.15533 19.59499 35865 ft 478 kts 345°
2026-04-30 00:19 76.22010 19.53623 35852 ft 475 kts 344°
2026-04-30 00:19 76.28482 19.47679 35859 ft 477 kts 345°
2026-04-30 00:20 76.34969 19.41677 35868 ft 475 kts 345°
2026-04-30 00:20 76.41446 19.35616 35865 ft 478 kts 345°
2026-04-30 00:21 76.47944 19.29481 35841 ft 479 kts 345°
2026-04-30 00:21 76.54456 19.23275 35859 ft 480 kts 344°
2026-04-30 00:22 76.60993 19.16982 35852 ft 479 kts 345°
2026-04-30 00:22 76.67493 19.10662 35860 ft 480 kts 344°
2026-04-30 00:23 76.74014 19.04268 35839 ft 480 kts 345°
2026-04-30 00:23 76.80521 18.97815 35841 ft 479 kts 344°
2026-04-30 00:24 76.87042 18.91284 35853 ft 481 kts 345°
2026-04-30 00:24 76.93550 18.84697 35851 ft 478 kts 344°
2026-04-30 00:25 77.00005 18.78101 35852 ft 480 kts 344°
2026-04-30 00:25 77.06481 18.71425 35553 ft 474 kts 344°
2026-04-30 00:25 77.09715 18.68055 34502 ft 483 kts 344°
2026-04-30 00:26 77.13019 18.64605 33610 ft 489 kts 345°
2026-04-30 00:26 77.16297 18.61164 33032 ft 480 kts 345°
2026-04-30 00:26 77.19554 18.57726 31855 ft 479 kts 345°
2026-04-30 00:26 77.22800 18.54280 30671 ft 480 kts 345°
2026-04-30 00:27 77.26057 18.50808 29330 ft 482 kts 345°
2026-04-30 00:27 77.29333 18.47297 27803 ft 485 kts 345°
2026-04-30 00:27 77.32623 18.43755 26286 ft 487 kts 345°
2026-04-30 00:27 77.35927 18.40184 24822 ft 488 kts 345°
2026-04-30 00:28 77.39225 18.36600 23655 ft 483 kts 345°
2026-04-30 00:28 77.42440 18.33088 22893 ft 467 kts 345°
2026-04-30 00:28 77.45535 18.29690 22228 ft 450 kts 345°
2026-04-30 00:28 77.48541 18.26374 21565 ft 443 kts 345°
2026-04-30 00:29 77.51578 18.23007 20834 ft 453 kts 345°
2026-04-30 00:29 77.54642 18.19594 20154 ft 455 kts 345°
2026-04-30 00:29 77.57727 18.16142 19480 ft 454 kts 345°
2026-04-30 00:29 77.60781 18.12707 18799 ft 451 kts 345°
2026-04-30 00:30 77.63835 18.09256 18094 ft 450 kts 345°
2026-04-30 00:30 77.66869 18.05809 17364 ft 447 kts 345°
2026-04-30 00:30 77.69870 18.02384 16795 ft 442 kts 345°
2026-04-30 00:30 77.72842 17.98977 16045 ft 440 kts 345°
2026-04-30 00:31 77.75801 17.95567 15427 ft 432 kts 345°
2026-04-30 00:31 77.78707 17.92202 14718 ft 429 kts 345°
2026-04-30 00:31 77.81600 17.88839 14143 ft 426 kts 345°
2026-04-30 00:31 77.84480 17.85471 13416 ft 428 kts 345°
2026-04-30 00:32 77.87361 17.82089 12824 ft 424 kts 345°
2026-04-30 00:32 77.90124 17.78812 12287 ft 419 kts 343°
2026-04-30 00:32 77.92766 17.72992 11762 ft 407 kts 320°
2026-04-30 00:32 77.94706 17.63461 11522 ft 387 kts 301°
2026-04-30 00:33 77.95931 17.52695 11395 ft 366 kts 287°
2026-04-30 00:33 77.96728 17.41314 11228 ft 352 kts 282°
2026-04-30 00:33 77.97373 17.30264 11043 ft 341 kts 279°
2026-04-30 00:33 77.97928 17.19354 10877 ft 331 kts 278°
2026-04-30 00:34 77.98420 17.08747 10717 ft 321 kts 277°
2026-04-30 00:34 77.98874 16.98356 10558 ft 313 kts 276°
2026-04-30 00:34 77.99300 16.88277 10386 ft 303 kts 276°
2026-04-30 00:34 77.99701 16.78493 10262 ft 294 kts 276°
2026-04-30 00:35 78.00081 16.69000 10088 ft 285 kts 275°
2026-04-30 00:35 78.00447 16.59818 9993 ft 275 kts 275°
2026-04-30 00:35 78.00683 16.53885 9914 ft 271 kts 275°
2026-04-30 00:35 78.01025 16.45009 9820 ft 269 kts 275°
2026-04-30 00:36 78.01361 16.36196 9766 ft 268 kts 275°
2026-04-30 00:36 78.01698 16.27357 9800 ft 269 kts 275°
2026-04-30 00:36 78.02033 16.18495 9770 ft 270 kts 274°
2026-04-30 00:36 78.02367 16.09601 9815 ft 270 kts 275°
2026-04-30 00:37 78.02697 16.00721 9763 ft 270 kts 274°
2026-04-30 00:37 78.03024 15.91836 9758 ft 269 kts 274°
2026-04-30 00:37 78.03349 15.82955 9752 ft 269 kts 274°
2026-04-30 00:37 78.03671 15.74057 9752 ft 270 kts 274°
2026-04-30 00:38 78.03990 15.65156 9733 ft 270 kts 274°
2026-04-30 00:38 78.04308 15.56211 9769 ft 270 kts 274°
2026-04-30 00:38 78.04622 15.47280 9782 ft 270 kts 274°
2026-04-30 00:38 78.04933 15.38366 9698 ft 269 kts 274°
2026-04-30 00:39 78.05241 15.29432 9707 ft 270 kts 274°
2026-04-30 00:39 78.05547 15.20497 9735 ft 269 kts 274°
2026-04-30 00:39 78.05849 15.11630 9721 ft 268 kts 274°
2026-04-30 00:39 78.06151 15.02685 9743 ft 269 kts 274°
2026-04-30 00:40 78.06615 14.93891 9709 ft 275 kts 290°
2026-04-30 00:40 78.07785 14.86744 9716 ft 271 kts 319°
2026-04-30 00:40 78.09447 14.82953 9759 ft 261 kts 346°
2026-04-30 00:40 78.11214 14.81678 9534 ft 252 kts 342°
2026-04-30 00:41 78.12717 14.77929 9042 ft 239 kts 309°
2026-04-30 00:41 78.13564 14.71401 8553 ft 223 kts 277°
2026-04-30 00:41 78.13666 14.64125 7951 ft 222 kts 260°
2026-04-30 00:41 78.13509 14.56396 7266 ft 230 kts 258°
2026-04-30 00:42 78.13328 14.48837 6857 ft 227 kts 258°
2026-04-30 00:42 78.13141 14.41226 6415 ft 225 kts 258°
2026-04-30 00:42 78.12935 14.33755 6056 ft 218 kts 252°
2026-04-30 00:42 78.12216 14.27860 5875 ft 199 kts 217°
2026-04-30 00:43 78.11044 14.24824 5801 ft 187 kts 198°
2026-04-30 00:43 78.09800 14.23965 5699 ft 177 kts 180°
2026-04-30 00:43 78.08610 14.25260 5609 ft 180 kts 161°
2026-04-30 00:43 78.07533 14.28672 5609 ft 192 kts 141°
2026-04-30 00:44 78.06766 14.34163 5590 ft 205 kts 116°
2026-04-30 00:44 78.06560 14.41120 5500 ft 215 kts 92°
2026-04-30 00:44 78.06628 14.48352 5361 ft 215 kts 94°
2026-04-30 00:44 78.06662 14.55567 5192 ft 216 kts 95°
2026-04-30 00:45 78.06688 14.62869 4966 ft 214 kts 96°
2026-04-30 00:45 78.06719 14.69914 4949 ft 209 kts 92°
2026-04-30 00:45 78.07215 14.76542 4814 ft 219 kts 57°
2026-04-30 00:45 78.08438 14.81092 4589 ft 227 kts 21°
2026-04-30 00:46 78.09934 14.81885 4469 ft 211 kts 350°
2026-04-30 00:46 78.11352 14.80842 4366 ft 206 kts 348°
2026-04-30 00:46 78.12731 14.79761 4255 ft 199 kts 348°
2026-04-30 00:46 78.14123 14.78642 4172 ft 203 kts 348°
2026-04-30 00:47 78.15507 14.77510 4099 ft 204 kts 348°
2026-04-30 00:47 78.16897 14.76358 4043 ft 196 kts 348°
2026-04-30 00:47 78.18227 14.75252 3833 ft 192 kts 345°
2026-04-30 00:47 78.19526 14.74342 3537 ft 192 kts 353°
2026-04-30 00:48 78.20874 14.74439 3238 ft 192 kts
2026-04-30 00:48 78.22174 14.75840 2965 ft 191 kts 21°
2026-04-30 00:48 78.23360 14.78530 2714 ft 188 kts 36°
2026-04-30 00:48 78.24386 14.82329 2485 ft 182 kts 49°
2026-04-30 00:49 78.25207 14.86887 2256 ft 174 kts 59°
2026-04-30 00:49 78.25779 14.91847 2092 ft 162 kts 70°
2026-04-30 00:49 78.26161 14.96903 2009 ft 156 kts 77°
2026-04-30 00:49 78.26405 15.02054 1860 ft 154 kts 84°
2026-04-30 00:50 78.26500 15.07260 1664 ft 152 kts 92°
2026-04-30 00:50 78.26438 15.12407 1437 ft 150 kts 100°
2026-04-30 00:50 78.26232 15.17311 1217 ft 148 kts 107°
2026-04-30 00:50 78.25966 15.22170 1026 ft 146 kts 107°
2026-04-30 00:51 78.25705 15.26953 951 ft 145 kts 99°
2026-04-30 00:51 78.25485 15.31735 649 ft 141 kts 98°
2026-04-30 00:51 78.25242 15.36361 380 ft 137 kts 105°
2026-04-30 00:51 78.24950 15.40819 153 ft 137 kts 108°
2026-04-30 00:52 78.24677 15.45442 104 ft 132 kts 107°
2026-04-30 00:52 78.24494 15.48669 100 ft 38 kts 110°
2026-04-30 00:52 78.24477 15.49185 99 ft 7 kts 98°
2026-04-30 00:52 78.24494 15.49388 97 ft 4 kts 32°
2026-04-30 00:53 78.24521 15.49429 97 ft 4 kts 12°
2026-04-30 00:53 78.24548 15.49454 100 ft 1 kts 359°
2026-04-30 00:53 78.24550 15.49452 101 ft 0 kts 352°
2026-04-30 00:53 78.24553 15.49444 100 ft 0 kts 338°
2026-04-30 00:54 78.24581 15.49339 98 ft 10 kts 314°
2026-04-30 00:54 78.24615 15.49177 99 ft 1 kts 344°
2026-04-30 00:55 78.24621 15.49173 98 ft 1 kts 359°
2026-04-30 00:55 78.24627 15.49204 98 ft 1 kts 60°
2026-04-30 00:55 78.24630 15.49265 99 ft 0 kts 76°